Weather in Chalna

Russia / Republic of Karelia     61°53′03″N   34°03′58″E
temp.,
°C
wind,
m/s
gust,
m/s
humid.,
%
clouds,
%
prec.,
mm/h
press.,
hPa
HPBL,
m
6 august, fri
fri600:00+10ne117777 0.0 101812
03:00+9nne228424 0.0 101820
06:00+11ne288099 0.0 1018193
09:00+16ene466087 0.0 1018702
12:00+19e574115 0.0 10181803
15:00+21e463215 0.0 10172300
18:00+19ese37417 0.0 10171678
21:00+14e127625 0.0 101742
7 august, sat
sat700:00+11ne23935 0.0 101856
03:00+12ene310903 0.0 1018360
06:00+13ene4108148 0.0 1017738
09:00+17e6106630 0.0 1016950
12:00+20e61056100 0.0 10161321
15:00+20e5963100 0.0 10151365
18:00+17e51171100 0.0 10151085
21:00+17ese51173100 0.1 1014979
8 august, sun
sun800:00+14e61597100 2.6 1014881
03:00+14e61397100 4.2 1013993
06:00+14e51097100 0.1 1013842
09:00+14e4998100 0.7 1013741
12:00+15e4998100 0.6 1013708
15:00+15e3798100 1.1 1014597
18:00+15ene3698100 0.1 1014456
21:00+14ne2599100 0.3 1015270
9 august, mon
mon900:00+13nne139990 0.1 1016160
03:00+13nne119987 0.1 101664
06:00+13e119997 0.0 101668
09:00+16ese129090 0.0 1016363
12:00+20se2371100 0.1 1016846
15:00+22ese336275 0.1 10161035
18:00+20ese3571100 0.0 1016513
21:00+17e298569 0.0 1016255
10 august, tue
tue1000:00+16e1189100 0.1 101525
03:00+15ssw2297100 0.1 101531
06:00+16ssw2796100 0.1 1016263
09:00+17sw4787100 0.1 1017511
12:00+21wsw356422 0.0 1018931
15:00+25wsw2446100 0.0 10172152
18:00+24s245099 0.0 10171251
21:00+17ssw1177100 0.0 101811